Location: Newark
(12.4436°N, 0.6167°W)
Time: 10:28:36
(UTC+00:00)

Vanguard 1 - Pass Details

Date: 13 December 2019
Orbit: 651 x 3832 km, 34.2° (Epoch: 23 January)

Event Time Altitude Azimuth Distance (km) Brightness Sun altitude
Rises 11:21:59 0° 300° (WNW) 6,299 13.9 53.4°
Reaches altitude 10° 11:26:57 10° 297° (WNW) 4,764 13.4 53.7°
Maximum altitude 11:38:31 60° 221° (SW) 1,518 12.5 54.1°
Drops below altitude 10° 11:44:51 10° 141° (SE) 2,685 12.9 54.3°
Sets 11:46:55 0° 137° (SE) 3,422 13.3 54.3°
